Location: Bégole
(43.1574°N, 0.3291°E)
Time: 13:18:52
(UTC+00:00)

SJ-11-01 - Pass Details

Date: 28 January 2023
Orbit: 682 x 699 km, 97.9° (Epoch: 20 March)

Event Time Altitude Azimuth Distance (km) Brightness Sun altitude
Rises 17:30:38 0° 167° (SSE) 3,042 7.7 -5.1°
Reaches altitude 10° 17:32:51 10° 168° (SSE) 2,133 6.9 -5.5°
Maximum altitude 17:37:32 85° 255° (WSW) 700 4.4 -6.3°
Drops below altitude 10° 17:42:17 10° 346° (NNW) 2,161 6.8 -7.1°
Sets 17:44:33 0° 347° (NNW) 3,085 7.6 -7.5°
